| time (UTC) | temp F | wind direction | speed MPH | gust MPH | rain 1hr in | rain 24hr in | rain mn in | humidity % | barometer mb |
| 20260505011134 | 76 | 144 | 1.0 | 2.0 | 0.00 | 0.02 | 0.02 | 57 | 1002.5 |
| 20260505010633 | 76 | 177 | 3.0 | 9.0 | 0.00 | 0.02 | 0.02 | 57 | 1002.7 |
| 20260505010130 | 76 | 137 | 2.0 | 3.0 | 0.00 | 0.02 | 0.02 | 57 | 1002.7 |
| 20260505005626 | 76 | 164 | 2.0 | 4.0 | 0.00 | 0.02 | 0.02 | 57 | 1002.6 |
| 20260505005124 | 76 | 181 | 3.0 | 4.0 | 0.00 | 0.02 | 0.02 | 57 | 1002.6 |
| 20260505004621 | 76 | 184 | 1.0 | 3.0 | 0.00 | 0.02 | 0.02 | 56 | 1002.6 |
| 20260505004118 | 77 | 96 | 1.0 | 5.0 | 0.00 | 0.02 | 0.02 | 56 | 1002.5 |
| 20260505003615 | 77 | 181 | 2.0 | 5.0 | 0.00 | 0.02 | 0.02 | 56 | 1002.3 |
| 20260505003112 | 77 | 199 | 5.0 | 7.0 | 0.00 | 0.02 | 0.02 | 55 | 1002.3 |
| 20260505002608 | 77 | 225 | 2.0 | 4.0 | 0.00 | 0.02 | 0.02 | 56 | 1002.1 |
| 20260505002107 | 78 | 184 | 2.0 | 9.0 | 0.00 | 0.02 | 0.02 | 55 | 1002.4 |
| 20260505001603 | 78 | 195 | 2.0 | 4.0 | 0.00 | 0.02 | 0.02 | 54 | 1002.2 |
| 20260505001101 | 79 | 228 | 2.0 | 3.0 | 0.00 | 0.02 | 0.02 | 54 | 1002.4 |
| 20260505000558 | 78 | 169 | 2.0 | 9.0 | 0.00 | 0.02 | 0.02 | 54 | 1002.3 |
| 20260505000055 | 78 | 196 | 5.0 | 8.0 | 0.00 | 0.02 | 0.02 | 54 | 1002.2 |
| 20260504235552 | 79 | 196 | 2.0 | 7.0 | 0.00 | 0.02 | 0.02 | 54 | 1002.2 |
| 20260504235049 | 79 | 189 | 2.0 | 5.0 | 0.00 | 0.02 | 0.02 | 54 | 1002.4 |
| 20260504234545 | 79 | 231 | 7.0 | 8.0 | 0.00 | 0.02 | 0.02 | 53 | 1002.4 |
| 20260504234043 | 80 | 212 | 4.0 | 6.0 | 0.00 | 0.02 | 0.02 | 53 | 1002.3 |
| 20260504233538 | 80 | 160 | 3.0 | 8.0 | 0.00 | 0.02 | 0.02 | 52 | 1002.4 |
| 20260504233035 | 79 | 154 | 2.0 | 3.0 | 0.00 | 0.02 | 0.02 | 53 | 1002.3 |
| 20260504232532 | 80 | 215 | 4.0 | 8.0 | 0.00 | 0.02 | 0.02 | 52 | 1002.5 |
| 20260504232030 | 80 | 166 | 2.0 | 7.0 | 0.00 | 0.02 | 0.02 | 52 | 1002.5 |
| 20260504231526 | 80 | 227 | 9.0 | 10.0 | 0.00 | 0.02 | 0.02 | 52 | 1002.5 |
| 20260504231022 | 80 | 237 | 4.0 | 11.0 | 0.00 | 0.02 | 0.02 | 52 | 1002.6 |
| 20260504230519 | 80 | 161 | 2.0 | 11.0 | 0.00 | 0.02 | 0.02 | 51 | 1002.7 |
| 20260504230018 | 80 | 175 | 4.0 | 14.0 | 0.00 | 0.02 | 0.02 | 51 | 1002.7 |
| 20260504225514 | 80 | 211 | 6.0 | 10.0 | 0.00 | 0.02 | 0.02 | 53 | 1002.8 |
| 20260504225012 | 80 | 190 | 2.0 | 6.0 | 0.00 | 0.02 | 0.02 | 52 | 1002.7 |
| 20260504224508 | 80 | 205 | 5.0 | 5.0 | 0.00 | 0.02 | 0.02 | 52 | 1002.7 |
| 20260504224005 | 80 | 180 | 4.0 | 9.0 | 0.00 | 0.02 | 0.02 | 51 | 1002.6 |
| 20260504223502 | 80 | 211 | 3.0 | 7.0 | 0.00 | 0.02 | 0.02 | 51 | 1002.8 |
| 20260504222957 | 80 | 200 | 5.0 | 16.0 | 0.00 | 0.02 | 0.02 | 51 | 1002.9 |
| 20260504222455 | 80 | 218 | 4.0 | 6.0 | 0.00 | 0.02 | 0.02 | 52 | 1003.0 |
| 20260504221952 | 80 | 245 | 2.0 | 13.0 | 0.00 | 0.02 | 0.02 | 53 | 1003.0 |
| 20260504221449 | 80 | 164 | 3.0 | 12.0 | 0.00 | 0.02 | 0.02 | 53 | 1002.9 |
| 20260504220946 | 80 | 222 | 4.0 | 13.0 | 0.00 | 0.02 | 0.02 | 52 | 1002.8 |
| 20260504220442 | 81 | 231 | 5.0 | 9.0 | 0.00 | 0.02 | 0.02 | 53 | 1003.0 |
| 20260504215940 | 81 | 171 | 4.0 | 5.0 | 0.00 | 0.02 | 0.02 | 52 | 1003.2 |
| 20260504215436 | 81 | 176 | 3.0 | 9.0 | 0.00 | 0.02 | 0.02 | 54 | 1003.0 |
| 20260504214933 | 81 | 233 | 5.0 | 12.0 | 0.00 | 0.02 | 0.02 | 54 | 1003.0 |
| 20260504214429 | 82 | 217 | 3.0 | 5.0 | 0.00 | 0.02 | 0.02 | 52 | 1003.0 |
| 20260504213926 | 82 | 240 | 6.0 | 6.0 | 0.00 | 0.02 | 0.02 | 52 | 1003.0 |
| 20260504213422 | 81 | 202 | 3.0 | 11.0 | 0.00 | 0.02 | 0.02 | 53 | 1003.0 |
| 20260504212920 | 81 | 195 | 3.0 | 7.0 | 0.00 | 0.02 | 0.02 | 53 | 1003.0 |
| 20260504212415 | 82 | 164 | 3.0 | 6.0 | 0.00 | 0.02 | 0.02 | 53 | 1003.0 |
| 20260504211913 | 81 | 227 | 5.0 | 8.0 | 0.00 | 0.02 | 0.02 | 54 | 1003.0 |
| 20260504211409 | 81 | 210 | 3.0 | 10.0 | 0.00 | 0.02 | 0.02 | 54 | 1003.2 |
| 20260504210907 | 81 | 246 | 4.0 | 8.0 | 0.00 | 0.02 | 0.02 | 58 | 1003.2 |
| 20260504210404 | 81 | 172 | 3.0 | 9.0 | 0.00 | 0.02 | 0.02 | 59 | 1003.2 |
| 20260504205900 | 80 | 229 | 6.0 | 8.0 | 0.00 | 0.02 | 0.02 | 60 | 1003.2 |
| 20260504205358 | 80 | 206 | 4.0 | 9.0 | 0.00 | 0.02 | 0.02 | 62 | 1003.1 |
| 20260504204857 | 80 | 157 | 3.0 | 4.0 | 0.00 | 0.02 | 0.02 | 63 | 1003.2 |
| 20260504204354 | 79 | 140 | 1.0 | 9.0 | 0.00 | 0.02 | 0.02 | 63 | 1003.5 |
| 20260504203854 | 78 | 185 | 2.0 | 5.0 | 0.00 | 0.02 | 0.02 | 65 | 1003.6 |
| 20260504203350 | 78 | 204 | 4.0 | 5.0 | 0.00 | 0.02 | 0.02 | 63 | 1003.5 |
| 20260504202846 | 77 | 223 | 5.0 | 10.0 | 0.00 | 0.02 | 0.02 | 65 | 1003.6 |
| 20260504202343 | 77 | 227 | 2.0 | 4.0 | 0.00 | 0.02 | 0.02 | 65 | 1003.8 |
| 20260504201839 | 77 | 179 | 3.0 | 7.0 | 0.00 | 0.02 | 0.02 | 65 | 1003.8 |
| 20260504201337 | 77 | 258 | 2.0 | 4.0 | 0.00 | 0.02 | 0.02 | 63 | 1003.7 |
| 20260504200835 | 77 | 149 | 2.0 | 5.0 | 0.00 | 0.02 | 0.02 | 64 | 1004.0 |
| 20260504200331 | 75 | 196 | 6.0 | 9.0 | 0.00 | 0.02 | 0.02 | 64 | 1004.0 |
| 20260504195827 | 75 | 166 | 2.0 | 3.0 | 0.00 | 0.02 | 0.02 | 67 | 1004.1 |
| 20260504195323 | 74 | 150 | 2.0 | 5.0 | 0.00 | 0.02 | 0.02 | 70 | 1004.0 |
| 20260504194820 | 74 | 167 | 5.0 | 5.0 | 0.00 | 0.02 | 0.02 | 71 | 1004.2 |
| 20260504194316 | 73 | 143 | 3.0 | 6.0 | 0.00 | 0.02 | 0.02 | 71 | 1004.3 |
| 20260504193812 | 72 | 17 | 0.0 | 4.0 | 0.00 | 0.02 | 0.02 | 73 | 1004.3 |
| 20260504193310 | 72 | 160 | 4.0 | 6.0 | 0.00 | 0.02 | 0.02 | 71 | 1004.3 |
| 20260504192808 | 72 | 150 | 3.0 | 5.0 | 0.00 | 0.02 | 0.02 | 72 | 1004.4 |
| 20260504192306 | 71 | 177 | 2.0 | 5.0 | 0.00 | 0.02 | 0.02 | 74 | 1004.6 |
| 20260504191804 | 71 | 77 | 2.0 | 4.0 | 0.00 | 0.02 | 0.02 | 75 | 1004.6 |
| 20260504191301 | 69 | 89 | 1.0 | 6.0 | 0.00 | 0.02 | 0.02 | 76 | 1004.9 |
| 20260504190757 | 69 | 144 | 1.0 | 4.0 | 0.00 | 0.02 | 0.02 | 78 | 1004.4 |
| 20260504190253 | 66 | 138 | 3.0 | 3.0 | 0.00 | 0.02 | 0.02 | 81 | 1004.1 |
| 20260504185750 | 65 | 134 | 2.0 | 4.0 | 0.00 | 0.02 | 0.02 | 82 | 1004.0 |
| 20260504185247 | 64 | 124 | 2.0 | 5.0 | 0.02 | 0.02 | 0.02 | 83 | 1003.8 |
| 20260504184743 | 63 | 101 | 3.0 | 4.0 | 0.02 | 0.02 | 0.02 | 85 | 1003.9 |
| 20260504184239 | 64 | 128 | 3.0 | 5.0 | 0.00 | 0.01 | 0.01 | 84 | 1004.9 |
| 20260504183734 | 64 | 155 | 2.0 | 4.0 | 0.00 | 0.01 | 0.01 | 82 | 1005.6 |
| 20260504183232 | 65 | 140 | 2.0 | 5.0 | 0.00 | 0.01 | 0.01 | 81 | 1005.5 |
| 20260504182730 | 65 | 118 | 2.0 | 5.0 | 0.00 | 0.01 | 0.01 | 80 | 1005.9 |
| 20260504182227 | 65 | 137 | 2.0 | 3.0 | 0.00 | 0.01 | 0.01 | 79 | 1005.7 |
| 20260504181724 | 65 | 135 | 0.0 | 5.0 | 0.00 | 0.01 | 0.01 | 81 | 1005.7 |
| 20260504181221 | 65 | 154 | 1.0 | 5.0 | 0.00 | 0.01 | 0.01 | 82 | 1005.6 |
| 20260504180721 | 65 | 117 | 3.0 | 4.0 | 0.00 | 0.01 | 0.01 | 83 | 1005.6 |
| 20260504180219 | 64 | 168 | 2.0 | 3.0 | 0.00 | 0.01 | 0.01 | 84 | 1005.5 |
| 20260504175716 | 64 | 163 | 3.0 | 5.0 | 0.00 | 0.01 | 0.01 | 83 | 1005.5 |
| 20260504175212 | 64 | 106 | 3.0 | 3.0 | 0.00 | 0.01 | 0.01 | 83 | 1005.5 |
| 20260504174711 | 64 | 113 | 3.0 | 7.0 | 0.00 | 0.01 | 0.01 | 82 | 1005.5 |
| 20260504174208 | 64 | 133 | 0.0 | 6.0 | 0.00 | 0.01 | 0.01 | 81 | 1005.8 |
| 20260504173704 | 64 | 122 | 0.0 | 4.0 | 0.00 | 0.01 | 0.01 | 79 | 1005.7 |
| 20260504173202 | 64 | 141 | 3.0 | 3.0 | 0.00 | 0.01 | 0.01 | 79 | 1005.9 |
| 20260504172658 | 64 | 127 | 1.0 | 3.0 | 0.00 | 0.01 | 0.01 | 80 | 1005.8 |
| 20260504172155 | 64 | 78 | 3.0 | 7.0 | 0.00 | 0.01 | 0.01 | 78 | 1005.9 |
| 20260504171651 | 64 | 173 | 3.0 | 6.0 | 0.00 | 0.01 | 0.01 | 78 | 1006.1 |
| 20260504171148 | 64 | 174 | 7.0 | 9.0 | 0.00 | 0.01 | 0.01 | 77 | 1006.1 |
| 20260504170645 | 64 | 156 | 3.0 | 6.0 | 0.00 | 0.01 | 0.01 | 78 | 1006.1 |
| 20260504170142 | 63 | 186 | 1.0 | 6.0 | 0.00 | 0.01 | 0.01 | 79 | 1006.3 |
| 20260504151027 | 66 | 180 | 1.0 | 3.0 | 0.00 | 0.00 | 0.00 | 66 | 1007.7 |
| 20260504150525 | 66 | 136 | 2.0 | 4.0 | 0.00 | 0.00 | 0.00 | 66 | 1007.5 |
| 20260504140951 | 67 | 93 | 2.0 | 4.0 | 0.00 | 0.00 | 0.00 | 66 | 1007.7 |
| 20260504140447 | 68 | 152 | 4.0 | 7.0 | 0.00 | 0.00 | 0.00 | 65 | 1007.6 |
| 20260504130412 | 63 | 167 | 3.0 | 7.0 | 0.00 | 0.00 | 0.00 | 72 | 1008.3 |
| 20260504110259 | 61 | 167 | 3.0 | 6.0 | 0.00 | 0.00 | 0.00 | 72 | 1008.4 |
| 20260504100217 | 60 | 118 | 2.0 | 4.0 | 0.00 | 0.00 | 0.00 | 75 | 1008.8 |
| 20260504090139 | 61 | 155 | 3.0 | 4.0 | 0.00 | 0.00 | 0.00 | 74 | 1008.5 |
| 20260504081610 | 60 | 89 | 2.0 | 2.0 | 0.00 | 0.00 | 0.00 | 76 | 1008.7 |
| 20260504081106 | 60 | 23 | 3.0 | 3.0 | 0.00 | 0.00 | 0.00 | 75 | 1008.6 |
| 20260504080603 | 60 | 52 | 0.0 | 2.0 | 0.00 | 0.00 | 0.00 | 75 | 1008.4 |
| 20260504050409 | 67 | 139 | 2.0 | 5.0 | 0.00 | 0.00 | 0.00 | 60 | 1008.5 |
| 20260504045906 | 67 | 237 | 5.0 | 5.0 | 0.00 | 0.00 | 0.00 | 60 | 1008.5 |
| 20260504045402 | 67 | 221 | 4.0 | 5.0 | 0.00 | 0.00 | 0.00 | 60 | 1008.2 |
| 20260504044858 | 67 | 169 | 3.0 | 5.0 | 0.00 | 0.00 | 0.00 | 60 | 1008.4 |
| 20260504044356 | 67 | 168 | 3.0 | 11.0 | 0.00 | 0.00 | 0.00 | 59 | 1008.3 |
| 20260504043854 | 68 | 209 | 5.0 | 5.0 | 0.00 | 0.00 | 0.00 | 59 | 1008.5 |
| 20260504043350 | 68 | 188 | 5.0 | 9.0 | 0.00 | 0.00 | 0.00 | 59 | 1008.4 |
| 20260504042848 | 68 | 216 | 4.0 | 6.0 | 0.00 | 0.00 | 0.00 | 58 | 1008.7 |
| 20260504042344 | 68 | 130 | 2.0 | 5.0 | 0.00 | 0.00 | 0.00 | 58 | 1008.6 |
| 20260504041840 | 68 | 189 | 2.0 | 4.0 | 0.00 | 0.00 | 0.00 | 58 | 1008.9 |
| 20260504041336 | 68 | 172 | 1.0 | 9.0 | 0.00 | 0.00 | 0.00 | 57 | 1008.9 |
| 20260504040833 | 69 | 235 | 2.0 | 7.0 | 0.00 | 0.00 | 0.00 | 57 | 1009.0 |
| 20260504040330 | 69 | 228 | 3.0 | 6.0 | 0.00 | 0.00 | 0.00 | 56 | 1009.2 |
| 20260504035825 | 70 | 228 | 5.0 | 9.0 | 0.00 | 0.00 | 0.00 | 54 | 1009.3 |
| 20260504035324 | 69 | 255 | 4.0 | 6.0 | 0.00 | 0.00 | 0.00 | 55 | 1009.4 |
| 20260504034820 | 69 | 0 | 2.0 | 3.0 | 0.00 | 0.00 | 0.00 | 57 | 1008.7 |
| 20260504034318 | 69 | 137 | 3.0 | 5.0 | 0.00 | 0.00 | 0.00 | 57 | 1008.2 |
| 20260504033815 | 70 | 157 | 3.0 | 9.0 | 0.00 | 0.00 | 0.00 | 56 | 1008.8 |
| 20260504033313 | 70 | 157 | 5.0 | 5.0 | 0.00 | 0.00 | 0.00 | 56 | 1009.4 |
| 20260504032809 | 70 | 158 | 4.0 | 5.0 | 0.00 | 0.00 | 0.00 | 56 | 1009.5 |
| 20260504032307 | 70 | 202 | 2.0 | 5.0 | 0.00 | 0.00 | 0.00 | 56 | 1009.5 |
| 20260504031803 | 70 | 185 | 3.0 | 5.0 | 0.00 | 0.00 | 0.00 | 56 | 1009.7 |
| 20260504031300 | 70 | 167 | 5.0 | 5.0 | 0.00 | 0.00 | 0.00 | 56 | 1009.8 |
| 20260504030757 | 70 | 187 | 2.0 | 5.0 | 0.00 | 0.00 | 0.00 | 56 | 1009.8 |
| 20260504030254 | 70 | 220 | 3.0 | 4.0 | 0.00 | 0.00 | 0.00 | 56 | 1009.6 |
| 20260504025750 | 70 | 165 | 2.0 | 3.0 | 0.00 | 0.00 | 0.00 | 57 | 1009.5 |
| 20260504025247 | 69 | 151 | 3.0 | 5.0 | 0.00 | 0.00 | 0.00 | 56 | 1009.5 |
| 20260504024744 | 70 | 158 | 1.0 | 3.0 | 0.00 | 0.00 | 0.00 | 56 | 1009.5 |
| 20260504024241 | 70 | 139 | 2.0 | 4.0 | 0.00 | 0.00 | 0.00 | 56 | 1009.5 |
| 20260504023738 | 70 | 151 | 3.0 | 3.0 | 0.00 | 0.00 | 0.00 | 56 | 1009.6 |
| 20260504023234 | 70 | 112 | 2.0 | 3.0 | 0.00 | 0.00 | 0.00 | 55 | 1009.6 |
| 20260504022730 | 71 | 123 | 1.0 | 3.0 | 0.00 | 0.00 | 0.00 | 54 | 1009.7 |
| 20260504022226 | 71 | 156 | 0.0 | 2.0 | 0.00 | 0.00 | 0.00 | 54 | 1009.6 |
| 20260504021723 | 71 | 218 | 2.0 | 3.0 | 0.00 | 0.00 | 0.00 | 53 | 1009.7 |
| 20260504021221 | 71 | 353 | 0.0 | 2.0 | 0.00 | 0.00 | 0.00 | 53 | 1009.6 |
| 20260504020717 | 71 | 69 | 0.0 | 2.0 | 0.00 | 0.00 | 0.00 | 53 | 1009.4 |
| 20260504020214 | 72 | 105 | 0.0 | 2.0 | 0.00 | 0.00 | 0.00 | 52 | 1009.5 |
| 20260504015710 | 72 | 247 | 2.0 | 3.0 | 0.00 | 0.00 | 0.00 | 52 | 1009.6 |
| 20260504015207 | 71 | 326 | 0.0 | 2.0 | 0.00 | 0.00 | 0.00 | 53 | 1009.4 |
| 20260504014702 | 72 | 136 | 0.0 | 3.0 | 0.00 | 0.00 | 0.00 | 52 | 1009.5 |
| 20260504014159 | 72 | 48 | 2.0 | 3.0 | 0.00 | 0.00 | 0.00 | 52 | 1009.5 |
| 20260504013657 | 72 | 21 | 3.0 | 5.0 | 0.00 | 0.00 | 0.00 | 52 | 1009.4 |
| 20260504013154 | 72 | 212 | 2.0 | 3.0 | 0.00 | 0.00 | 0.00 | 51 | 1009.1 |
| 20260504012651 | 72 | 142 | 2.0 | 4.0 | 0.00 | 0.00 | 0.00 | 51 | 1009.0 |
| 20260504012149 | 72 | 174 | 3.0 | 4.0 | 0.00 | 0.00 | 0.00 | 51 | 1008.8 |
| 20260504011645 | 72 | 183 | 2.0 | 4.0 | 0.00 | 0.00 | 0.00 | 50 | 1008.9 |